Content
SEND FEEDBACK

Daily
Averages
Monthly
Summary
Barbados

BRIDGETOWN, BARBADOS


Home > Caribbean > Barbados
Elevation: 183 feet     Latitude: 13 04N     Longitude: 059 29W

WEATHER
 
SELECT A DAY
Number of Records: 177,072;   Date Range: 6/30/96 - 11/26/14
 
SHARE

PRINT THIS DATA

[ ← Previous Day ]
WEATHER ALMANAC - FEBRUARY 18, 2013
[ Next Day → ]
[ °C ]   °F
Weather ElementAverageHighLow
Temperature79.8 °F84.2 °F (12:00 pm)77 °F (2:00 am)
Dewpoint71.8 °F75.2 °F (1:00 pm)68 °F (8:00 pm)
Humidity75.3 %89 % (2:00 am)58 % (2:00 pm)
Barometer29.99 in30.04 in (9:00 am)29.95 in (3:00 am)
Wind Speed23.5 mph28.8 mph (12:00 pm)
Weather ElementAverage
Visibility8.3 mi
Wind DirectionESE (105.8 °)

Weather ElementTotal
Precipitation---
Cooling Degree Days15.6 (Base 65)
Growing Degree Days30.6 (Base 50)
Averaged from 31 records on February 18, 2013
WEATHER CONDITIONS BREAKOUT
WIND DIRECTION BREAKOUT
WEATHER BY HOUR - FEBRUARY 18, 2013
[ °C ]   °F
Local TimeTemperatureDewpointHumidityBarometerVisibilityWind DirectionWind SpeedGust SpeedPrecipitationEventsConditions
1:00 AM78.8 °F73.4 °F83 %29.98 in6.2 miESE (110°)23.0 mphScattered Clouds
2:00 AM78.0 °F73.0 °F81 %29.97 in14.0 miESE (110°)20.7 mphPartly Cloudy
2:00 AM77.0 °F73.4 °F89 %29.98 in6.2 miESE (110°)20.7 mphScattered Clouds
3:00 AM77.0 °F73.4 °F89 %29.95 in6.2 miESE (110°)20.7 mphScattered Clouds
4:00 AM77.0 °F73.4 °F89 %29.95 in6.2 miESE (110°)20.7 mphScattered Clouds
5:00 AM78.0 °F73.0 °F80 %29.96 in14.0 miESE (110°)19.6 mphMostly Cloudy
5:00 AM77.0 °F73.4 °F89 %29.95 in6.2 miESE (110°)20.7 mphScattered Clouds
6:00 AM77.0 °F73.4 °F89 %29.98 in6.2 miESE (110°)21.9 mphScattered Clouds
7:00 AM77.0 °F73.4 °F89 %29.98 in6.2 miESE (110°)20.7 mphScattered Clouds
8:00 AM80.0 °F72.0 °F72 %30.01 in14.0 miESE (110°)24.2 mphWidespread Dust
8:00 AM78.8 °F73.4 °F83 %30.01 in6.2 miESE (110°)24.2 mphScattered Clouds
9:00 AM82.4 °F71.6 °F70 %30.04 in6.2 miESE (110°)24.2 mphScattered Clouds
10:00 AM82.4 °F71.6 °F70 %30.04 in6.2 miEast (100°)26.5 mphScattered Clouds
11:00 AM83.0 °F71.0 °F60 %30.03 in12.0 miEast (100°)26.5 mphWidespread Dust
11:00 AM82.4 °F71.6 °F70 %30.04 in6.2 miEast (100°)26.5 mphMostly Cloudy
12:00 PM84.2 °F71.6 °F66 %30.01 in6.2 miESE (110°)28.8 mphScattered Clouds
1:00 PM84.2 °F75.2 °F74 %29.98 in6.2 miEast (100°)27.6 mphMostly Cloudy
2:00 PM84.0 °F72.0 °F58 %29.97 in12.0 miESE (110°)24.2 mphWidespread Dust
2:00 PM84.2 °F71.6 °F66 %29.98 in6.2 miESE (110°)25.3 mphScattered Clouds
3:00 PM84.2 °F73.4 °F70 %29.95 in6.2 miESE (110°)24.2 mphScattered Clouds
4:00 PM82.4 °F71.6 °F70 %29.95 in6.2 miEast (100°)23.0 mphScattered Clouds
5:00 PM80.0 °F71.0 °F67 %29.96 in16.0 miEast (100°)25.3 mph
5:00 PM80.6 °F71.6 °F74 %29.95 in6.2 miEast (100°)25.3 mphScattered Clouds
6:00 PM78.8 °F69.8 °F74 %29.95 in6.2 miESE (110°)20.7 mphPartly Cloudy
7:00 PM78.8 °F71.6 °F78 %29.98 in6.2 miESE (110°)24.2 mphRainLight Rain Showers
8:00 PM78.0 °F68.0 °F64 %29.99 in16.0 miEast (100°)23.0 mphScattered Clouds
8:00 PM78.8 °F68.0 °F69 %29.98 in6.2 miEast (100°)23.0 mphPartly Cloudy
9:00 PM77.0 °F69.8 °F78 %30.01 in6.2 miEast (100°)24.2 mphScattered Clouds
10:00 PM78.8 °F69.8 °F74 %30.01 in6.2 miEast (100°)24.2 mphScattered Clouds
11:00 PM78.0 °F70.0 °F70 %30.02 in16.0 miEast (100°)23.0 mphPartly Cloudy
11:00 PM77.0 °F69.8 °F78 %30.01 in6.2 miEast (100°)23.0 mphScattered Clouds
Hourly data recorded from TBPB, located miles away from Bridgetown, Barbados







STORIES FROM OUR PARTNERS